Weather History for KHJO - November, 2012

Change the Weather History Date:

Wednesday, November 28, 2012

  Actual Average Record
Temperature  
Mean Temperature 53 °F 48 °F  
Max Temperature 63 °F 59 °F 73 °F (2014)
Min Temperature 43 °F 36 °F 28 °F (2005)
Degree Days  
Heating Degree Days 12    
Month to date heating degree days 309  
Since 1 July heating degree days 392  
Cooling Degree Days 0    
Month to date cooling degree days 0  
Year to date cooling degree days 2018  
Growing Degree Days 2 (Base 50)    
Moisture  
Dew Point 48 °F    
Average Humidity 77    
Maximum Humidity 93    
Minimum Humidity 60    
Precipitation  
Precipitation 0.11 in 0.02 in 0.11 in (2012)
Month to date precipitation 0.28 0.96  
Year to date precipitation 5.00 8.43  
Since 1 July precipitation 0.42 1.67  
Snow  
Snow 0.00 in - - ()
Month to date snowfall 0.0  
Since 1 July snowfall 0.0  
Since 1 September snowfall 0.0  
Snow Depth 0.00 in    
Sea Level Pressure  
Sea Level Pressure 30.05 in    
Wind  
Wind Speed 5 mph (ESE)    
Max Wind Speed 17 mph    
Max Gust Speed 22 mph    
Visibility 5 miles    
Events Rain    
T = Trace of Precipitation, MM = Missing Value Source: NWS Daily Summary

Daily Weather History Graph

Daily Weather History Graph

Search for Another Location

Airport or City:

Trip Planner

Search our weather history database for the weather conditions in past years. The results will help you decide how hot, cold, wet, or windy it might be!

Date:

Astronomy

Nov. 28, 2012 Rise Set
Actual Time 6:49 AM PST 4:44 PM PST
Civil Twilight 6:20 AM PST 5:12 PM PST
Nautical Twilight 5:49 AM PST 5:43 PM PST
Astronomical Twilight 5:18 AM PST 6:14 PM PST
Moon 5:03 PM PST (11/28) 6:50 AM PST (11/28)
Length of Visible Light 10h 51m
Length of Day
9h 54m
Full, 100% of the Moon is Illuminated
Nov 28
Full
Dec 6
Last Quarter
Dec 13
New
Dec 19
First Quarter
Dec 28
Full

Hourly Weather History & Observations

Time (PST) Temp. Windchill Dew Point Humidity Pressure Visibility Wind Dir Wind Speed Gust Speed Precip Events Conditions
12:53 AM 50.0 °F - 46.0 °F 86% 30.06 in 2.5 mi East 8.1 mph - N/A   Clear
1:53 AM 48.0 °F - 45.0 °F 89% 30.04 in 2.0 mi SSW 3.5 mph - N/A   Clear
2:11 AM 46.4 °F 43.5 °F 42.8 °F 87% 30.03 in 1.8 mi SSW 5.8 mph - N/A   Clear
2:23 AM 46.4 °F 45.2 °F 44.6 °F 93% 30.03 in 2.0 mi South 3.5 mph - N/A   Clear
2:53 AM 45.0 °F 41.8 °F 42.1 °F 90% 30.01 in 2.0 mi SE 5.8 mph - N/A   Clear
3:46 AM 44.6 °F 42.2 °F 41.0 °F 87% 29.99 in 3.0 mi South 4.6 mph - N/A   Clear
3:53 AM 43.0 °F 39.5 °F 39.9 °F 89% 29.99 in 2.5 mi South 5.8 mph - N/A   Clear
4:02 AM 42.8 °F 39.3 °F 41.0 °F 93% 29.97 in 3.0 mi SSE 5.8 mph - N/A   Clear
4:53 AM 46.0 °F 43.1 °F 42.1 °F 86% 30.01 in 7.0 mi South 5.8 mph - N/A   Clear
5:53 AM 46.0 °F 42.5 °F 42.1 °F 86% 30.02 in 7.0 mi SSE 6.9 mph - N/A   Overcast
6:53 AM 45.0 °F 43.5 °F 42.1 °F 90% 30.04 in 3.0 mi East 3.5 mph - N/A   Mostly Cloudy
7:53 AM 50.0 °F - 44.1 °F 80% 30.06 in 3.0 mi ESE 4.6 mph - N/A   Haze
8:53 AM 54.0 °F - 46.9 °F 77% 30.07 in 4.0 mi Calm Calm - N/A   Haze
9:53 AM 61.0 °F - 46.9 °F 60% 30.05 in 7.0 mi SE 8.1 mph - N/A   Overcast
10:53 AM 61.0 °F - 48.0 °F 62% 30.04 in 7.0 mi ESE 5.8 mph - N/A   Mostly Cloudy
11:35 AM 55.4 °F - 51.8 °F 88% 30.04 in 1.8 mi East 9.2 mph - 0.05 in Rain Rain
11:53 AM 55.9 °F - 52.0 °F 87% 30.05 in 3.0 mi ENE 5.8 mph - 0.09 in Rain Light Rain
12:53 PM 59.0 °F - 52.0 °F 78% 30.05 in 7.0 mi East 5.8 mph - 0.01 in   Overcast
1:53 PM 60.1 °F - 52.0 °F 75% 30.05 in 8.0 mi ENE 8.1 mph - 0.00 in   Overcast
2:53 PM 57.9 °F - 53.1 °F 84% 30.05 in 8.0 mi East 13.8 mph 20.7 mph N/A   Overcast
3:53 PM 57.9 °F - 52.0 °F 81% 30.06 in 7.0 mi East 6.9 mph - 0.00 in Rain Light Rain
4:53 PM 57.0 °F - 53.1 °F 87% 30.07 in 10.0 mi ENE 6.9 mph - 0.01 in   Overcast
5:53 PM 57.0 °F - 53.1 °F 87% 30.09 in 10.0 mi NE 5.8 mph - N/A   Mostly Cloudy
6:53 PM 55.9 °F - 52.0 °F 87% 30.10 in 10.0 mi ENE 3.5 mph - N/A   Overcast
7:53 PM 55.0 °F - 52.0 °F 89% 30.10 in 10.0 mi East 3.5 mph - N/A   Overcast
8:53 PM 51.1 °F - 48.9 °F 92% 30.11 in 7.0 mi South 3.5 mph - N/A   Clear
9:53 PM 53.1 °F - 51.1 °F 93% 30.12 in 5.0 mi Calm Calm - N/A   Overcast
11:53 PM 54.0 °F - 53.1 °F 97% 30.12 in 4.0 mi Calm Calm - 0.00 in   Overcast